{"data":{"norad_id":64498,"intl_designator":"2025-133AC","name":"STARLINK-34427","alt_names":[],"object_type":"PAYLOAD","status":"ACTIVE","operator":null,"country":"US","launch_date":"2025-06-23","launch_site_code":"AFETR","launch_vehicle":null,"mission":null,"orbit_class":"UNKNOWN","rcs_meters":null,"size_class":null,"mass_kg":null,"dimensions":null,"purposes":["comms"],"wikipedia_slug":null,"has_3d_model":false,"image_url":null,"decayed_at":null,"tle_current":{"epoch":"2026-05-25T04:35:29.946912Z","epoch_age_seconds":62488,"freshness":"FRESH","line1":"1 64498U 25133AC  26145.19131883 -.00000491  00000+0 -44343-5 0  9995","line2":"2 64498  53.1602 121.2691 0001281  93.5018 266.6129 15.30200717 52904","mean_motion":15.30200717,"eccentricity":0.0001281,"inclination_deg":53.1602,"raan_deg":121.2691,"arg_perigee_deg":93.5018,"mean_anomaly_deg":266.6129,"bstar":-4.4343e-6,"rev_number":5290,"period_min":94.10530161188,"perigee_km":474.33501446155,"apogee_km":476.09084271325,"semimajor_km":6853.3499285874,"source":"CELESTRAK","updated_at":"2026-05-25T13:38:20.462968Z"}}}